Location: Kam�li
(14.6864°N, 3.1482°W)
Time: 02:27:06
(UTC+00:00)

CZ-4 R/B - Pass Details

Date: 29 October 2020
Orbit: 579 x 590 km, 97.8° (Epoch: 02 December)

Event Time Altitude Azimuth Distance (km) Brightness Sun altitude
Rises 18:43:16 0° 163° (SSE) 2,803 7.9 -14.6°
Reaches altitude 10° 18:45:25 10° 161° (SSE) 1,905 7.0 -15.1°
Maximum altitude 18:49:32 68° 78° (ENE) 633 4.3 -16.1°
Drops below altitude 10° 18:53:39 10° 355° (N) 1,911 7.0 -17.0°
Sets 18:55:49 0° 353° (N) 2,812 7.9 -17.6°
